Location: Prostejov
(49.4670°N, 17.1170°E)
Time: 00:48:04
(UTC+01:00)

ISS - Visible Passes

Search period start: 21 January 2021 00:00
Search period end: 31 January 2021 00:00
Orbit: 418 x 419 km, 51.6° (Epoch: 21 January)

Date Brightness Start Highest point End Pass type
(mag) Time Alt. Az. Time Alt. Az. Time Alt. Az.
21 Jan -2.5 17:55:23 10° SSW 17:58:20 29° SE 17:59:24 24° ESE visible
21 Jan -0.8 19:31:33 10° WSW 19:32:21 16° WSW 19:32:21 16° WSW visible
22 Jan -1.9 17:08:15 10° S 17:10:45 20° SE 17:13:16 10° E visible
22 Jan -3.4 18:43:48 10° WSW 18:46:41 62° SW 18:46:41 62° SW visible
23 Jan -3.5 17:56:07 10° SW 17:59:27 59° SSE 18:00:58 28° E visible
23 Jan -0.8 19:32:56 10° W 19:33:55 18° W 19:33:55 18° W visible
24 Jan -3.0 17:08:34 10° SW 17:11:45 41° SSE 17:14:57 10° ENE visible
24 Jan -3.4 18:45:06 10° W 18:48:08 61° NW 18:48:08 61° NW visible
25 Jan -3.8 17:57:17 10° WSW 18:00:40 81° NNW 18:02:20 27° ENE visible
25 Jan -0.9 19:34:18 10° WNW 19:35:17 18° WNW 19:35:17 18° WNW visible
26 Jan -3.7 17:09:30 10° WSW 17:12:52 80° SSE 17:16:15 10° ENE visible
26 Jan -3.2 18:46:27 10° W 18:49:27 53° NNW 18:49:27 53° NNW visible
27 Jan -3.5 17:58:35 10° W 18:01:56 60° N 18:03:37 26° ENE visible
27 Jan -0.9 19:35:33 10° WNW 19:36:33 18° WNW 19:36:33 18° WNW visible
28 Jan -3.4 18:47:44 10° WNW 18:50:43 57° NNW 18:50:43 57° NNW visible
29 Jan -3.5 17:59:52 10° WNW 18:03:13 58° N 18:04:54 26° ENE visible
29 Jan -1.0 19:36:44 10° WNW 19:37:51 19° WNW 19:37:51 19° WNW visible
30 Jan -3.5 17:11:59 10° W 17:15:19 57° N 17:18:39 10° E visible
30 Jan -3.7 18:48:53 10° WNW 18:52:04 78° WNW 18:52:04 78° WNW visible
